When you browse on this site, cookies collect data to enhance your experience and personalize the content and advertising you see.
Visit our Privacy Policy to learn more. By continuing to use the site, you agree to this use of cookies and data.

Stündliche Wetter Hajfong

Heute, 11 Juli, Samstag

Zeit Temperatur Niederschläge Wind Luftdruck Luftfeuchtigkeit
00:00 +34°C° 0.4 mm 5 m/S 750 mmHg 73%
01:00 +33°C° 0 mm 5 m/S 750 mmHg 75%
02:00 +33°C° 0 mm 5 m/S 749 mmHg 74%
03:00 +33°C° 0 mm 5 m/S 749 mmHg 74%
04:00 +33°C° 0 mm 5 m/S 749 mmHg 73%
05:00 +33°C° 0 mm 5 m/S 749 mmHg 72%
06:00 +33°C° 0 mm 4 m/S 749 mmHg 71%
07:00 +34°C° 0 mm 4 m/S 750 mmHg 70%
08:00 +35°C° 0.1 mm 5 m/S 750 mmHg 66%
09:00 +36°C° 0.1 mm 5 m/S 750 mmHg 62%
10:00 +38°C° 0.1 mm 6 m/S 750 mmHg 57%
11:00 +38°C° 0 mm 6 m/S 750 mmHg 56%
12:00 +38°C° 0 mm 6 m/S 750 mmHg 55%
13:00 +38°C° 0 mm 6 m/S 750 mmHg 54%
14:00 +37°C° 0 mm 5 m/S 749 mmHg 58%
15:00 +36°C° 0 mm 5 m/S 749 mmHg 62%
16:00 +35°C° 0 mm 4 m/S 749 mmHg 66%
17:00 +34°C° 0.9 mm 3 m/S 749 mmHg 71%
18:00 +33°C° 0.9 mm 3 m/S 749 mmHg 76%
19:00 +30°C° 0.9 mm 2 m/S 750 mmHg 81%
20:00 +30°C° 0.1 mm 2 m/S 750 mmHg 81%
21:00 +30°C° 0.1 mm 3 m/S 751 mmHg 81%
22:00 +30°C° 0.1 mm 3 m/S 752 mmHg 81%
23:00 +30°C° 0.2 mm 4 m/S 751 mmHg 81%

Morgen, 12 Juli, Sonntag

Zeit Temperatur Niederschläge Wind Luftdruck Luftfeuchtigkeit
00:00 +32°C° 0.2 mm 5 m/S 751 mmHg 81%
01:00 +32°C° 0.2 mm 6 m/S 751 mmHg 81%
02:00 +32°C° 0.7 mm 5 m/S 751 mmHg 81%
03:00 +32°C° 0.7 mm 5 m/S 751 mmHg 82%
04:00 +32°C° 0.7 mm 5 m/S 750 mmHg 82%
05:00 +32°C° 1.1 mm 5 m/S 751 mmHg 83%
06:00 +32°C° 1.1 mm 5 m/S 751 mmHg 83%
07:00 +33°C° 1.1 mm 5 m/S 751 mmHg 83%
08:00 +34°C° 0.4 mm 4 m/S 752 mmHg 77%
09:00 +35°C° 0.4 mm 4 m/S 752 mmHg 71%
10:00 +36°C° 0.4 mm 4 m/S 752 mmHg 65%
11:00 +36°C° 0.2 mm 4 m/S 752 mmHg 64%
12:00 +37°C° 0.2 mm 4 m/S 752 mmHg 62%
13:00 +37°C° 0.2 mm 4 m/S 751 mmHg 60%
14:00 +37°C° 0.7 mm 4 m/S 751 mmHg 62%
15:00 +36°C° 0.7 mm 4 m/S 751 mmHg 64%
16:00 +36°C° 0.7 mm 4 m/S 750 mmHg 66%
17:00 +34°C° 0.8 mm 3 m/S 751 mmHg 73%
18:00 +33°C° 0.8 mm 3 m/S 751 mmHg 79%
19:00 +31°C° 0.8 mm 2 m/S 751 mmHg 85%
20:00 +31°C° 0.2 mm 2 m/S 752 mmHg 87%
21:00 +31°C° 0.2 mm 2 m/S 753 mmHg 88%
22:00 +30°C° 0.2 mm 2 m/S 753 mmHg 89%
23:00 +30°C° 0.7 mm 2 m/S 753 mmHg 86%

übermorgen, 13 Juli, Montag

Zeit Temperatur Niederschläge Wind Luftdruck Luftfeuchtigkeit
00:00 +30°C° 0.7 mm 2 m/S 753 mmHg 84%
01:00 +30°C° 0.7 mm 2 m/S 753 mmHg 81%
02:00 +30°C° 0.1 mm 2 m/S 753 mmHg 82%
03:00 +30°C° 0.1 mm 2 m/S 753 mmHg 84%
04:00 +30°C° 0.1 mm 2 m/S 753 mmHg 85%
05:00 +30°C° 0.4 mm 2 m/S 753 mmHg 82%
06:00 +31°C° 0.4 mm 2 m/S 753 mmHg 80%
07:00 +32°C° 0.4 mm 1 m/S 753 mmHg 78%
08:00 +34°C° 0.1 mm 2 m/S 754 mmHg 71%
09:00 +35°C° 0.1 mm 3 m/S 754 mmHg 64%
10:00 +37°C° 0.1 mm 4 m/S 754 mmHg 57%
11:00 +37°C° 0 mm 4 m/S 754 mmHg 56%
12:00 +37°C° 0 mm 4 m/S 753 mmHg 55%
13:00 +37°C° 0 mm 5 m/S 753 mmHg 55%
14:00 +37°C° 0 mm 5 m/S 752 mmHg 58%
15:00 +36°C° 0 mm 5 m/S 752 mmHg 61%
16:00 +36°C° 0 mm 5 m/S 751 mmHg 64%
17:00 +34°C° 0 mm 4 m/S 751 mmHg 69%
18:00 +33°C° 0 mm 4 m/S 752 mmHg 74%
19:00 +31°C° 0 mm 3 m/S 752 mmHg 79%
20:00 +31°C° 0 mm 3 m/S 752 mmHg 80%
21:00 +31°C° 0 mm 3 m/S 753 mmHg 81%
22:00 +30°C° 0 mm 3 m/S 754 mmHg 82%
23:00 +30°C° 0.2 mm 2 m/S 754 mmHg 84%

14 Juli, Dienstag

Zeit Temperatur Niederschläge Wind Luftdruck Luftfeuchtigkeit
00:00 +30°C° 0.2 mm 2 m/S 753 mmHg 86%
01:00 +30°C° 0.2 mm 2 m/S 753 mmHg 88%
02:00 +30°C° 0.2 mm 2 m/S 753 mmHg 87%
03:00 +30°C° 0.2 mm 2 m/S 753 mmHg 87%
04:00 +30°C° 0.2 mm 2 m/S 753 mmHg 87%
05:00 +30°C° 0 mm 2 m/S 753 mmHg 83%
06:00 +31°C° 0 mm 3 m/S 753 mmHg 80%
07:00 +33°C° 0 mm 3 m/S 754 mmHg 77%
08:00 +34°C° 0 mm 3 m/S 754 mmHg 71%
09:00 +35°C° 0 mm 4 m/S 754 mmHg 65%
10:00 +36°C° 0 mm 5 m/S 754 mmHg 60%
11:00 +36°C° 0 mm 5 m/S 753 mmHg 59%
12:00 +37°C° 0 mm 5 m/S 753 mmHg 58%
13:00 +37°C° 0 mm 5 m/S 752 mmHg 57%
14:00 +36°C° 0 mm 5 m/S 752 mmHg 59%
15:00 +36°C° 0 mm 5 m/S 751 mmHg 62%
16:00 +35°C° 0 mm 5 m/S 750 mmHg 65%
17:00 +34°C° 0 mm 5 m/S 750 mmHg 70%
18:00 +33°C° 0 mm 5 m/S 751 mmHg 76%
19:00 +32°C° 0 mm 4 m/S 751 mmHg 82%
20:00 +32°C° 0 mm 4 m/S 752 mmHg 82%
21:00 +32°C° 0 mm 4 m/S 752 mmHg 83%
22:00 +31°C° 0 mm 3 m/S 753 mmHg 84%
23:00 +31°C° 0 mm 3 m/S 753 mmHg 84%

15 Juli, Mittwoch

Zeit Temperatur Niederschläge Wind Luftdruck Luftfeuchtigkeit
00:00 +30°C° 0 mm 3 m/S 752 mmHg 84%
01:00 +30°C° 0 mm 4 m/S 752 mmHg 84%
02:00 +30°C° 0 mm 4 m/S 752 mmHg 84%
03:00 +30°C° 0 mm 4 m/S 752 mmHg 85%
04:00 +30°C° 0 mm 3 m/S 752 mmHg 85%
05:00 +32°C° 0 mm 4 m/S 752 mmHg 83%
06:00 +32°C° 0 mm 4 m/S 752 mmHg 80%
07:00 +33°C° 0 mm 4 m/S 753 mmHg 78%
08:00 +33°C° 0 mm 4 m/S 753 mmHg 75%
09:00 +34°C° 0 mm 5 m/S 753 mmHg 73%
10:00 +35°C° 0 mm 5 m/S 753 mmHg 70%
11:00 +35°C° 0 mm 5 m/S 752 mmHg 68%
12:00 +36°C° 0 mm 5 m/S 752 mmHg 67%
13:00 +36°C° 0 mm 5 m/S 751 mmHg 65%
14:00 +36°C° 0 mm 5 m/S 750 mmHg 67%
15:00 +35°C° 0 mm 5 m/S 750 mmHg 69%
16:00 +35°C° 0 mm 5 m/S 749 mmHg 70%
17:00 +34°C° 0 mm 5 m/S 749 mmHg 75%
18:00 +33°C° 0 mm 4 m/S 749 mmHg 79%
19:00 +32°C° 0 mm 4 m/S 749 mmHg 83%
20:00 +32°C° 0 mm 4 m/S 750 mmHg 84%
21:00 +31°C° 0 mm 3 m/S 751 mmHg 85%
22:00 +31°C° 0 mm 3 m/S 751 mmHg 86%
23:00 +32°C° 0.2 mm 4 m/S 751 mmHg 86%

16 Juli, Donnerstag

Zeit Temperatur Niederschläge Wind Luftdruck Luftfeuchtigkeit
00:00 +32°C° 0.2 mm 4 m/S 751 mmHg 86%
01:00 +30°C° 0.2 mm 4 m/S 750 mmHg 86%
02:00 +30°C° 0.2 mm 4 m/S 750 mmHg 86%
03:00 +30°C° 0.2 mm 4 m/S 750 mmHg 85%
04:00 +30°C° 0.2 mm 4 m/S 750 mmHg 85%
05:00 +32°C° 0 mm 4 m/S 750 mmHg 83%
06:00 +32°C° 0 mm 5 m/S 751 mmHg 82%
07:00 +33°C° 0 mm 6 m/S 751 mmHg 80%
08:00 +34°C° 0.3 mm 6 m/S 751 mmHg 75%
09:00 +35°C° 0.3 mm 6 m/S 751 mmHg 69%
10:00 +36°C° 0.3 mm 6 m/S 751 mmHg 64%
11:00 +36°C° 0.1 mm 6 m/S 751 mmHg 63%
12:00 +36°C° 0.1 mm 6 m/S 750 mmHg 61%
13:00 +38°C° 0.1 mm 6 m/S 750 mmHg 60%
14:00 +36°C° 0 mm 6 m/S 749 mmHg 62%
15:00 +36°C° 0 mm 6 m/S 749 mmHg 63%
16:00 +35°C° 0 mm 5 m/S 748 mmHg 65%
17:00 +34°C° 0 mm 5 m/S 748 mmHg 69%
18:00 +33°C° 0 mm 5 m/S 749 mmHg 74%
19:00 +32°C° 0 mm 4 m/S 749 mmHg 78%
20:00 +32°C° 0.2 mm 4 m/S 750 mmHg 79%
21:00 +32°C° 0.2 mm 4 m/S 750 mmHg 80%
22:00 +32°C° 0.2 mm 4 m/S 751 mmHg 81%
23:00 +32°C° 1 mm 5 m/S 751 mmHg 80%
Mehr zeigen